contact:dominique.lefevre@mio.osupytheas.fr, maurice.libes@osupytheas.fr, didier.mallarino@osupytheas.fr
Project:EMSO http://www.emso-fr.org/EMSO-France
Depth: 2436.0 m
Title:EMSO Ligure Ouest : Data MII capteur AQUADOPP
Date,Latitude,Longitude,X_East,Y_North,Z_Up,Amplitude_X,Amplitude_Y,Amplitude_Z,Batterie,SoundSpeed,Heading,Pitch,Roll,Pressure,TIS,Speed,Direction
, degrees North, degrees East, m.s-1, m.s-1,m.s-1, 1, 1, 1, Volt, m.s-1, degree, degree, degree, dbar, degree_C, m.s-1, degree
2020-09-30T00:04:03,42.805,6.029,-0.034,0.016,-0.012,104.0,106.0,103.0,13.4,1505.3,322.6,-0.8,1.8,2470.328,13.31,0.037,295.2
2020-09-30T00:07:03,42.805,6.029,-0.038,0.013,0.002,101.0,108.0,102.0,13.3,1505.3,323.8,-0.7,1.8,2470.386,13.31,0.04,288.9
2020-09-30T00:10:03,42.805,6.029,-0.054,0.021,0.001,102.0,107.0,104.0,13.4,1505.3,325.4,-0.7,1.8,2470.346,13.32,0.057,291.2
2020-09-30T00:13:03,42.805,6.029,-0.08,0.005,0.01,102.0,108.0,101.0,13.4,1505.3,324.1,-0.7,1.8,2470.338,13.32,0.08,273.6
2020-09-30T00:16:03,42.805,6.029,-0.036,0.011,0.019,102.0,107.0,101.0,13.4,1505.3,327.2,-0.7,1.8,2470.336,13.32,0.037,287.0
2020-09-30T00:19:03,42.805,6.029,-0.046,0.006,0.009,102.0,106.0,103.0,13.4,1505.3,325.7,-0.7,1.8,2470.312,13.32,0.046,277.4
2020-09-30T00:22:03,42.805,6.029,-0.049,0.005,-0.039,102.0,108.0,101.0,13.3,1505.3,327.7,-0.7,1.8,2470.302,13.33,0.049,275.8
2020-09-30T00:25:03,42.805,6.029,-0.077,0.017,-0.044,103.0,109.0,101.0,13.3,1505.3,324.8,-0.7,1.8,2470.313,13.33,0.078,282.4
2020-09-30T00:28:03,42.805,6.029,-0.048,0.012,0.0,103.0,108.0,100.0,13.4,1505.3,326.4,-0.7,1.9,2470.363,13.33,0.049,284.0
2020-09-30T00:31:03,42.805,6.029,-0.064,0.015,-0.028,102.0,107.0,101.0,13.4,1505.3,326.5,-0.7,1.8,2470.316,13.33,0.065,283.2
2020-09-30T00:34:03,42.805,6.029,-0.056,0.01,0.005,103.0,107.0,102.0,13.4,1505.3,326.2,-0.7,1.8,2470.31,13.33,0.056,280.1
2020-09-30T00:37:03,42.805,6.029,-0.058,0.012,-0.021,102.0,108.0,102.0,13.4,1505.3,327.5,-0.7,1.8,2470.341,13.33,0.059,281.7
2020-09-30T00:40:03,42.805,6.029,-0.058,0.003,-0.015,102.0,106.0,100.0,13.4,1505.3,328.4,-0.7,1.8,2470.31,13.33,0.058,273.0
2020-09-30T00:43:03,42.805,6.029,-0.079,0.013,-0.042,103.0,108.0,100.0,13.4,1505.3,327.8,-0.7,1.8,2470.339,13.33,0.08,279.3
2020-09-30T00:46:03,42.805,6.029,-0.061,0.036,0.022,102.0,107.0,102.0,13.4,1505.3,327.5,-0.7,1.8,2470.296,13.33,0.07,300.5
2020-09-30T00:49:03,42.805,6.029,-0.06,0.023,-0.01,103.0,106.0,101.0,13.4,1505.3,325.9,-0.7,1.8,2470.302,13.33,0.064,291.0
2020-09-30T00:52:03,42.805,6.029,-0.053,0.009,0.007,102.0,109.0,101.0,13.4,1505.3,324.5,-0.6,1.8,2470.326,13.33,0.053,279.6
2020-09-30T00:55:03,42.805,6.029,-0.027,-0.002,0.003,103.0,108.0,101.0,13.4,1505.3,325.8,-0.7,1.8,2470.299,13.33,0.027,265.8
2020-09-30T00:58:03,42.805,6.029,-0.035,0.006,0.006,103.0,108.0,102.0,13.4,1505.3,322.8,-0.7,1.8,2470.321,13.33,0.035,279.7
2020-09-30T01:04:03,42.805,6.029,-0.043,-0.004,-0.006,107.0,109.0,102.0,13.4,1505.3,323.0,-0.8,1.8,2470.338,13.31,0.043,264.7
2020-09-30T01:07:03,42.805,6.029,-0.092,0.019,0.004,102.0,107.0,102.0,13.4,1505.3,325.6,-0.7,1.8,2470.355,13.31,0.093,281.7
2020-09-30T01:10:03,42.805,6.029,-0.069,0.01,-0.042,103.0,107.0,102.0,13.4,1505.3,328.0,-0.7,1.8,2470.329,13.32,0.069,278.2
2020-09-30T01:13:03,42.805,6.029,-0.046,0.02,-0.002,103.0,108.0,101.0,13.4,1505.3,323.8,-0.7,1.8,2470.315,13.32,0.05,293.5
2020-09-30T01:16:03,42.805,6.029,-0.041,0.006,0.016,102.0,108.0,101.0,13.4,1505.3,324.5,-0.7,1.8,2470.33,13.32,0.041,278.3
2020-09-30T01:19:03,42.805,6.029,-0.052,0.006,0.003,103.0,108.0,101.0,13.4,1505.3,323.0,-0.7,1.8,2470.312,13.32,0.052,276.6
2020-09-30T01:22:03,42.805,6.029,-0.045,0.01,-0.015,104.0,108.0,101.0,13.4,1505.3,325.4,-0.7,1.8,2470.303,13.33,0.046,282.5
2020-09-30T01:25:03,42.805,6.029,-0.045,0.003,0.016,103.0,107.0,101.0,13.4,1505.3,326.1,-0.7,1.8,2470.306,13.33,0.045,273.8
2020-09-30T01:28:03,42.805,6.029,-0.066,0.009,-0.022,102.0,107.0,102.0,13.4,1505.3,327.2,-0.7,1.8,2470.308,13.33,0.066,277.8
2020-09-30T01:31:03,42.805,6.029,-0.061,0.004,-0.003,103.0,108.0,101.0,13.4,1505.3,325.2,-0.7,1.8,2470.286,13.33,0.061,273.7
2020-09-30T01:34:03,42.805,6.029,-0.046,0.006,0.027,103.0,107.0,102.0,13.4,1505.3,323.8,-0.7,1.8,2470.325,13.33,0.046,277.4
2020-09-30T01:37:03,42.805,6.029,-0.07,-0.001,0.004,102.0,108.0,101.0,13.4,1505.3,323.4,-0.7,1.8,2470.3,13.33,0.07,269.2
2020-09-30T01:40:03,42.805,6.029,-0.074,0.006,-0.003,102.0,108.0,101.0,13.4,1505.3,322.8,-0.7,1.8,2470.325,13.33,0.074,274.6
2020-09-30T01:43:03,42.805,6.029,-0.04,0.004,-0.006,103.0,108.0,100.0,13.3,1505.3,324.9,-0.7,1.8,2470.346,13.33,0.04,275.7
2020-09-30T01:46:03,42.805,6.029,-0.05,0.014,0.028,102.0,108.0,101.0,13.4,1505.3,325.5,-0.7,1.8,2470.312,13.33,0.051,285.6
2020-09-30T01:49:03,42.805,6.029,-0.039,0.013,0.011,104.0,106.0,100.0,13.4,1505.3,324.4,-0.7,1.8,2470.334,13.33,0.041,288.4
2020-09-30T01:52:03,42.805,6.029,-0.077,-0.005,-0.035,103.0,107.0,101.0,13.4,1505.3,323.0,-0.7,1.8,2470.315,13.33,0.077,266.3
2020-09-30T01:55:03,42.805,6.029,-0.05,-0.005,0.026,103.0,107.0,101.0,13.3,1505.3,323.3,-0.7,1.8,2470.274,13.33,0.05,264.3
2020-09-30T01:58:03,42.805,6.029,-0.036,-0.023,-0.01,102.0,107.0,102.0,13.4,1505.3,323.2,-0.7,1.8,2470.337,13.33,0.042,237.4
2020-09-30T02:04:03,42.805,6.029,-0.027,0.023,0.031,101.0,108.0,102.0,13.4,1505.3,327.9,-0.7,1.8,2470.323,13.31,0.035,310.4
2020-09-30T02:07:03,42.805,6.029,-0.077,-0.001,0.003,102.0,108.0,101.0,13.4,1505.3,325.4,-0.7,1.8,2470.335,13.31,0.077,269.3
2020-09-30T02:10:03,42.805,6.029,-0.071,-0.003,-0.03,103.0,107.0,101.0,13.4,1505.3,327.0,-0.7,1.8,2470.309,13.32,0.071,267.6
2020-09-30T02:13:03,42.805,6.029,-0.031,-0.01,0.009,104.0,107.0,101.0,13.4,1505.3,324.7,-0.7,1.8,2470.307,13.32,0.032,252.1
2020-09-30T02:16:03,42.805,6.029,-0.033,0.011,0.012,104.0,108.0,103.0,13.4,1505.3,324.6,-0.7,1.8,2470.316,13.32,0.034,288.4
2020-09-30T02:19:03,42.805,6.029,-0.06,0.012,-0.027,105.0,107.0,101.0,13.4,1505.3,324.1,-0.7,1.8,2470.347,13.33,0.061,281.3
2020-09-30T02:22:03,42.805,6.029,-0.044,-0.008,0.005,103.0,108.0,101.0,13.4,1505.3,325.1,-0.7,1.8,2470.383,13.33,0.044,259.7
2020-09-30T02:25:03,42.805,6.029,-0.067,-0.001,-0.032,105.0,107.0,100.0,13.4,1505.3,325.9,-0.7,1.8,2470.323,13.33,0.067,269.1
2020-09-30T02:28:03,42.805,6.029,-0.068,-0.002,-0.027,103.0,108.0,100.0,13.4,1505.3,327.1,-0.7,1.8,2470.332,13.33,0.068,268.3
2020-09-30T02:31:03,42.805,6.029,-0.04,0.0,0.025,103.0,108.0,101.0,13.4,1505.3,324.2,-0.7,1.9,2470.321,13.33,0.04,270.0
2020-09-30T02:34:03,42.805,6.029,-0.08,0.003,-0.016,103.0,107.0,101.0,13.4,1505.3,328.0,-0.7,1.8,2470.318,13.33,0.08,272.1
2020-09-30T02:37:03,42.805,6.029,-0.035,0.019,0.013,104.0,106.0,101.0,13.4,1505.3,326.7,-0.7,1.8,2470.336,13.33,0.039,298.5
2020-09-30T02:40:03,42.805,6.029,-0.046,0.001,0.013,103.0,108.0,101.0,13.4,1505.3,325.1,-0.7,1.8,2470.322,13.33,0.046,271.2
2020-09-30T02:43:03,42.805,6.029,-0.069,0.003,-0.019,102.0,107.0,102.0,13.4,1505.3,325.0,-0.7,1.9,2470.339,13.33,0.069,272.5
2020-09-30T02:46:03,42.805,6.029,-0.044,0.008,-0.015,102.0,106.0,102.0,13.4,1505.3,327.1,-0.7,1.8,2470.321,13.33,0.044,280.3
2020-09-30T02:49:03,42.805,6.029,-0.04,-0.003,-0.015,103.0,107.0,102.0,13.4,1505.3,325.1,-0.7,1.8,2470.334,13.33,0.04,265.7
2020-09-30T02:52:03,42.805,6.029,-0.051,0.011,-0.002,104.0,107.0,101.0,13.4,1505.3,325.3,-0.7,1.8,2470.333,13.33,0.052,282.2
2020-09-30T02:55:03,42.805,6.029,-0.065,0.011,0.003,102.0,107.0,102.0,13.4,1505.3,324.0,-0.7,1.8,2470.36,13.33,0.065,279.6
2020-09-30T02:58:03,42.805,6.029,-0.033,0.013,0.017,104.0,107.0,101.0,13.4,1505.3,328.2,-0.7,1.8,2470.332,13.33,0.035,291.5
2020-09-30T03:04:03,42.805,6.029,-0.05,0.003,-0.029,103.0,109.0,101.0,13.4,1505.3,324.8,-0.7,1.8,2470.367,13.31,0.05,273.4
2020-09-30T03:07:03,42.805,6.029,-0.029,-0.007,-0.013,103.0,107.0,102.0,13.3,1505.3,327.8,-0.7,1.8,2470.368,13.32,0.029,256.4
2020-09-30T03:10:03,42.805,6.029,-0.058,0.0,-0.016,104.0,106.0,101.0,13.4,1505.3,325.1,-0.7,1.8,2470.346,13.32,0.057,270.0
2020-09-30T03:13:03,42.805,6.029,-0.054,0.012,-0.001,103.0,108.0,101.0,13.3,1505.3,326.8,-0.7,1.8,2470.4,13.32,0.055,282.5
2020-09-30T03:16:03,42.805,6.029,-0.047,-0.007,0.009,102.0,108.0,102.0,13.4,1505.3,324.4,-0.7,1.8,2470.36,13.33,0.047,261.5
2020-09-30T03:19:03,42.805,6.029,-0.067,0.02,0.035,105.0,107.0,102.0,13.4,1505.3,328.3,-0.7,1.8,2470.37,13.33,0.069,286.6
2020-09-30T03:22:03,42.805,6.029,-0.027,-0.009,0.001,103.0,108.0,102.0,13.4,1505.3,324.2,-0.7,1.8,2470.353,13.33,0.028,251.6
2020-09-30T03:25:03,42.805,6.029,-0.037,0.01,-0.004,103.0,106.0,101.0,13.3,1505.3,328.1,-0.7,1.8,2470.33,13.33,0.038,285.1
2020-09-30T03:28:03,42.805,6.029,-0.048,0.0,0.009,103.0,107.0,101.0,13.4,1505.3,324.0,-0.7,1.8,2470.359,13.33,0.048,270.0
2020-09-30T03:31:03,42.805,6.029,-0.051,0.007,-0.005,103.0,106.0,101.0,13.3,1505.3,324.5,-0.7,1.9,2470.373,13.33,0.051,277.8
2020-09-30T03:34:03,42.805,6.029,-0.039,0.005,-0.005,103.0,106.0,101.0,13.4,1505.3,328.1,-0.7,1.8,2470.355,13.33,0.039,277.3
2020-09-30T03:37:03,42.805,6.029,-0.047,0.008,0.009,104.0,106.0,101.0,13.4,1505.3,322.7,-0.7,1.8,2470.388,13.33,0.047,279.7
2020-09-30T03:40:03,42.805,6.029,-0.043,0.001,-0.024,103.0,106.0,102.0,13.4,1505.3,326.5,-0.7,1.8,2470.377,13.33,0.043,271.3
2020-09-30T03:43:03,42.805,6.029,-0.018,-0.006,0.0,105.0,107.0,102.0,13.4,1505.3,324.6,-0.7,1.9,2470.344,13.33,0.018,251.6
2020-09-30T03:46:03,42.805,6.029,-0.065,0.004,-0.035,103.0,108.0,104.0,13.4,1505.3,327.7,-0.7,1.8,2470.394,13.33,0.065,273.5
2020-09-30T03:49:03,42.805,6.029,-0.02,-0.007,-0.009,105.0,107.0,101.0,13.4,1505.3,323.4,-0.7,1.8,2470.347,13.33,0.021,250.7
2020-09-30T03:52:03,42.805,6.029,-0.024,-0.007,-0.008,103.0,107.0,101.0,13.3,1505.3,324.1,-0.7,1.8,2470.394,13.33,0.025,253.7
2020-09-30T03:55:03,42.805,6.029,-0.055,0.001,-0.014,103.0,107.0,102.0,13.3,1505.3,324.7,-0.7,1.8,2470.381,13.33,0.055,271.0
2020-09-30T03:58:03,42.805,6.029,-0.07,-0.014,-0.007,105.0,107.0,101.0,13.3,1505.3,326.6,-0.7,1.8,2470.353,13.33,0.071,258.7
2020-09-30T04:04:03,42.805,6.029,-0.053,0.001,0.018,103.0,105.0,101.0,13.3,1505.3,325.2,-0.7,1.8,2470.454,13.31,0.053,271.1
2020-09-30T04:07:03,42.805,6.029,-0.028,0.006,-0.006,104.0,107.0,101.0,13.4,1505.3,323.7,-0.7,1.8,2470.419,13.31,0.028,282.1
2020-09-30T04:10:03,42.805,6.029,-0.062,-0.011,-0.025,104.0,108.0,102.0,13.3,1505.3,324.5,-0.7,1.9,2470.408,13.32,0.062,259.9
2020-09-30T04:13:03,42.805,6.029,-0.038,0.004,-0.005,103.0,105.0,101.0,13.4,1505.3,323.1,-0.7,1.8,2470.398,13.32,0.038,276.0
2020-09-30T04:16:03,42.805,6.029,-0.053,0.002,-0.024,104.0,107.0,101.0,13.4,1505.3,326.7,-0.7,1.8,2470.44,13.33,0.053,272.2
2020-09-30T04:19:03,42.805,6.029,-0.048,0.002,-0.012,103.0,107.0,101.0,13.3,1505.3,323.5,-0.7,1.8,2470.433,13.33,0.048,272.4
2020-09-30T04:22:03,42.805,6.029,-0.047,0.003,-0.006,103.0,106.0,101.0,13.4,1505.3,322.7,-0.7,1.8,2470.363,13.33,0.047,273.6
2020-09-30T04:25:03,42.805,6.029,-0.041,0.011,-0.035,104.0,109.0,101.0,13.4,1505.3,327.7,-0.7,1.8,2470.424,13.33,0.042,285.0
2020-09-30T04:28:03,42.805,6.029,-0.05,-0.005,-0.007,104.0,106.0,100.0,13.4,1505.3,326.5,-0.7,1.8,2470.445,13.33,0.05,264.3
2020-09-30T04:31:03,42.805,6.029,-0.043,0.017,0.024,104.0,107.0,103.0,13.4,1505.3,326.4,-0.7,1.8,2470.411,13.33,0.046,291.6
2020-09-30T04:34:03,42.805,6.029,-0.044,0.0,-0.01,104.0,106.0,103.0,13.4,1505.3,327.5,-0.7,1.9,2470.422,13.33,0.044,270.0
2020-09-30T04:37:03,42.805,6.029,-0.057,0.011,-0.002,104.0,108.0,101.0,13.4,1505.3,323.7,-0.7,1.8,2470.406,13.33,0.058,280.9
2020-09-30T04:40:03,42.805,6.029,-0.068,0.003,-0.022,103.0,107.0,102.0,13.4,1505.3,327.6,-0.7,1.9,2470.441,13.33,0.068,272.5
2020-09-30T04:43:03,42.805,6.029,-0.057,-0.003,-0.013,103.0,106.0,101.0,13.3,1505.3,325.1,-0.7,1.8,2470.411,13.33,0.057,267.0
2020-09-30T04:46:03,42.805,6.029,-0.043,0.024,0.003,105.0,108.0,102.0,13.4,1505.3,323.8,-0.7,1.8,2470.42,13.33,0.049,299.2
2020-09-30T04:49:03,42.805,6.029,0.001,-0.008,0.012,103.0,106.0,101.0,13.4,1505.3,327.0,-0.7,1.8,2470.402,13.33,0.008,172.9
2020-09-30T04:52:03,42.805,6.029,-0.049,0.0,-0.006,104.0,108.0,102.0,13.3,1505.3,324.6,-0.7,1.8,2470.457,13.33,0.049,270.0
2020-09-30T04:55:03,42.805,6.029,-0.046,-0.009,-0.006,104.0,108.0,101.0,13.4,1505.3,322.7,-0.7,1.8,2470.427,13.33,0.046,258.9
2020-09-30T04:58:03,42.805,6.029,-0.038,-0.012,-0.001,103.0,106.0,102.0,13.4,1505.3,327.0,-0.7,1.8,2470.395,13.33,0.039,252.5
2020-09-30T05:04:03,42.805,6.029,-0.054,0.015,-0.029,104.0,107.0,102.0,13.4,1505.3,324.7,-0.8,1.8,2470.464,13.31,0.056,285.5
2020-09-30T05:07:03,42.805,6.029,-0.04,0.001,-0.008,104.0,108.0,101.0,13.4,1505.3,323.7,-0.7,1.8,2470.455,13.32,0.04,271.4
2020-09-30T05:10:03,42.805,6.029,-0.061,-0.003,0.0,104.0,107.0,101.0,13.4,1505.3,324.6,-0.7,1.8,2470.45,13.32,0.061,267.2
2020-09-30T05:13:03,42.805,6.029,-0.048,0.028,-0.006,103.0,107.0,102.0,13.3,1505.3,325.1,-0.7,1.8,2470.476,13.32,0.055,300.3
2020-09-30T05:16:03,42.805,6.029,-0.061,-0.005,-0.005,103.0,107.0,101.0,13.3,1505.3,324.4,-0.7,1.9,2470.448,13.33,0.061,265.3
2020-09-30T05:19:03,42.805,6.029,-0.036,-0.006,-0.024,103.0,107.0,100.0,13.4,1505.3,326.7,-0.7,1.8,2470.457,13.33,0.036,260.5
2020-09-30T05:22:03,42.805,6.029,-0.012,0.01,0.011,104.0,108.0,101.0,13.4,1505.3,326.8,-0.7,1.8,2470.425,13.33,0.015,309.8
2020-09-30T05:25:03,42.805,6.029,-0.045,-0.002,-0.001,104.0,107.0,101.0,13.4,1505.3,325.1,-0.7,1.8,2470.443,13.33,0.045,267.5
2020-09-30T05:28:03,42.805,6.029,-0.077,0.004,-0.009,102.0,107.0,101.0,13.4,1505.3,326.3,-0.7,1.8,2470.446,13.33,0.077,273.0
2020-09-30T05:31:03,42.805,6.029,-0.042,0.009,0.018,103.0,107.0,101.0,13.4,1505.3,324.2,-0.7,1.8,2470.455,13.33,0.042,282.1
2020-09-30T05:34:03,42.805,6.029,-0.029,0.003,-0.008,103.0,106.0,101.0,13.4,1505.3,326.0,-0.7,1.8,2470.461,13.33,0.029,275.9
2020-09-30T05:37:03,42.805,6.029,-0.059,0.018,0.001,103.0,107.0,101.0,13.3,1505.3,323.3,-0.7,1.9,2470.447,13.33,0.061,287.0
2020-09-30T05:40:03,42.805,6.029,-0.043,0.015,0.004,103.0,106.0,101.0,13.4,1505.3,325.3,-0.7,1.8,2470.433,13.33,0.045,289.2
2020-09-30T05:43:03,42.805,6.029,-0.03,0.003,0.0,102.0,106.0,101.0,13.4,1505.3,326.9,-0.7,1.8,2470.461,13.33,0.03,275.7
2020-09-30T05:46:03,42.805,6.029,-0.046,0.017,-0.012,102.0,107.0,102.0,13.4,1505.3,326.8,-0.7,1.8,2470.455,13.33,0.049,290.3
2020-09-30T05:49:03,42.805,6.029,-0.049,-0.006,-0.029,104.0,106.0,100.0,13.4,1505.3,327.7,-0.7,1.8,2470.462,13.33,0.049,263.0
2020-09-30T05:52:03,42.805,6.029,-0.051,0.007,-0.012,104.0,105.0,101.0,13.3,1505.3,325.2,-0.7,1.8,2470.39,13.33,0.051,277.8
2020-09-30T05:55:03,42.805,6.029,-0.017,-0.005,-0.009,103.0,107.0,101.0,13.3,1505.3,326.5,-0.7,1.8,2470.435,13.33,0.017,253.6
2020-09-30T05:58:03,42.805,6.029,-0.039,0.012,-0.019,103.0,106.0,102.0,13.3,1505.3,325.3,-0.7,1.8,2470.469,13.33,0.04,287.1
2020-09-30T06:04:03,42.805,6.029,-0.031,0.018,0.023,102.0,107.0,101.0,13.4,1505.3,324.6,-0.7,1.8,2470.514,13.31,0.035,300.1
2020-09-30T06:07:03,42.805,6.029,-0.051,0.002,-0.018,103.0,106.0,101.0,13.4,1505.3,325.3,-0.7,1.8,2470.487,13.32,0.051,272.2
2020-09-30T06:10:03,42.805,6.029,-0.049,-0.001,0.007,101.0,106.0,101.0,13.4,1505.3,323.7,-0.7,1.9,2470.462,13.32,0.049,268.8
2020-09-30T06:13:03,42.805,6.029,-0.053,0.001,0.003,102.0,107.0,101.0,13.4,1505.3,323.8,-0.7,1.8,2470.461,13.32,0.053,271.1
2020-09-30T06:16:03,42.805,6.029,-0.013,0.007,0.01,104.0,108.0,101.0,13.4,1505.3,326.8,-0.7,1.8,2470.452,13.33,0.014,298.3
2020-09-30T06:19:03,42.805,6.029,-0.033,-0.001,0.03,104.0,106.0,100.0,13.4,1505.3,324.1,-0.7,1.8,2470.471,13.33,0.033,268.3
2020-09-30T06:22:03,42.805,6.029,-0.026,-0.005,-0.002,103.0,107.0,100.0,13.4,1505.3,326.3,-0.7,1.8,2470.469,13.33,0.026,259.1
2020-09-30T06:25:03,42.805,6.029,-0.03,0.0,-0.005,103.0,107.0,102.0,13.4,1505.3,327.9,-0.7,1.8,2470.432,13.33,0.03,270.0
2020-09-30T06:28:03,42.805,6.029,0.0,-0.009,0.025,103.0,107.0,100.0,13.3,1505.3,323.3,-0.7,1.8,2470.438,13.33,0.009,180.0
2020-09-30T06:31:03,42.805,6.029,-0.063,0.003,0.006,103.0,106.0,100.0,13.4,1505.3,322.9,-0.7,1.8,2470.446,13.33,0.063,272.7
2020-09-30T06:34:03,42.805,6.029,-0.049,0.01,-0.02,102.0,108.0,100.0,13.4,1505.3,325.5,-0.7,1.8,2470.467,13.33,0.05,281.5
2020-09-30T06:37:03,42.805,6.029,-0.044,0.0,-0.006,104.0,105.0,101.0,13.4,1505.3,326.4,-0.7,1.8,2470.421,13.33,0.044,270.0
2020-09-30T06:40:03,42.805,6.029,-0.056,0.005,-0.005,103.0,107.0,100.0,13.4,1505.3,326.5,-0.7,1.8,2470.456,13.33,0.056,275.1
2020-09-30T06:43:03,42.805,6.029,-0.03,0.012,-0.003,104.0,107.0,100.0,13.4,1505.3,326.8,-0.7,1.8,2470.426,13.33,0.032,291.8
2020-09-30T06:46:03,42.805,6.029,-0.034,-0.009,0.0,103.0,106.0,102.0,13.4,1505.3,326.1,-0.7,1.8,2470.436,13.33,0.035,255.2
2020-09-30T06:49:03,42.805,6.029,-0.086,0.004,-0.017,102.0,108.0,100.0,13.4,1505.3,323.5,-0.7,1.8,2470.464,13.33,0.086,272.7
2020-09-30T06:52:03,42.805,6.029,-0.028,0.02,0.022,104.0,107.0,103.0,13.4,1505.3,327.3,-0.7,1.8,2470.427,13.33,0.034,305.5
2020-09-30T06:55:03,42.805,6.029,-0.032,-0.014,0.004,103.0,106.0,101.0,13.4,1505.3,325.2,-0.7,1.9,2470.443,13.33,0.034,246.4
2020-09-30T06:58:03,42.805,6.029,-0.042,-0.008,0.009,103.0,106.0,101.0,13.4,1505.3,323.7,-0.7,1.9,2470.428,13.33,0.042,259.2
2020-09-30T07:04:03,42.805,6.029,-0.042,0.0,-0.019,104.0,108.0,101.0,13.4,1505.3,324.6,-0.8,1.8,2470.497,13.31,0.042,270.0
2020-09-30T07:07:03,42.805,6.029,-0.035,0.006,-0.018,103.0,108.0,100.0,13.4,1505.3,327.9,-0.7,1.9,2470.497,13.32,0.035,279.7
2020-09-30T07:10:03,42.805,6.029,-0.037,-0.008,0.001,103.0,108.0,101.0,13.4,1505.3,322.7,-0.7,1.8,2470.473,13.32,0.037,257.8
2020-09-30T07:13:03,42.805,6.029,-0.058,0.02,0.035,101.0,107.0,102.0,13.4,1505.3,324.8,-0.7,1.9,2470.484,13.32,0.061,289.0
2020-09-30T07:16:03,42.805,6.029,-0.035,0.009,-0.007,102.0,108.0,101.0,13.4,1505.3,327.7,-0.7,1.8,2470.436,13.32,0.036,284.4
2020-09-30T07:19:03,42.805,6.029,-0.029,0.009,0.011,104.0,108.0,100.0,13.4,1505.3,322.7,-0.7,1.8,2470.48,13.33,0.03,287.2
2020-09-30T07:22:03,42.805,6.029,-0.036,-0.01,0.003,102.0,107.0,101.0,13.4,1505.3,325.6,-0.7,1.8,2470.447,13.33,0.037,254.5
2020-09-30T07:25:03,42.805,6.029,-0.043,-0.001,0.027,104.0,107.0,102.0,13.4,1505.3,325.8,-0.7,1.8,2470.455,13.33,0.043,268.7
2020-09-30T07:28:03,42.805,6.029,-0.042,0.006,-0.023,104.0,107.0,101.0,13.4,1505.3,326.4,-0.7,1.8,2470.434,13.33,0.042,278.1
2020-09-30T07:31:03,42.805,6.029,-0.048,0.007,0.012,104.0,107.0,101.0,13.4,1505.3,324.9,-0.7,1.8,2470.443,13.33,0.048,278.3
2020-09-30T07:34:03,42.805,6.029,-0.056,0.007,-0.008,102.0,108.0,101.0,13.4,1505.3,324.2,-0.7,1.8,2470.415,13.33,0.056,277.1
2020-09-30T07:37:03,42.805,6.029,-0.031,-0.01,-0.004,104.0,106.0,102.0,13.3,1505.3,325.3,-0.7,1.8,2470.454,13.33,0.032,252.1
2020-09-30T07:40:03,42.805,6.029,-0.031,0.018,0.013,102.0,107.0,101.0,13.4,1505.3,326.5,-0.7,1.9,2470.429,13.33,0.035,300.1
2020-09-30T07:43:03,42.805,6.029,-0.017,0.014,0.015,102.0,107.0,101.0,13.3,1505.3,325.1,-0.7,1.8,2470.432,13.33,0.022,309.5
2020-09-30T07:46:03,42.805,6.029,-0.048,0.002,-0.031,103.0,108.0,101.0,13.4,1505.3,326.4,-0.7,1.8,2470.431,13.33,0.048,272.4
2020-09-30T07:49:03,42.805,6.029,-0.051,0.022,0.009,104.0,108.0,102.0,13.4,1505.3,324.5,-0.7,1.9,2470.406,13.33,0.055,293.3
2020-09-30T07:52:03,42.805,6.029,-0.042,0.012,-0.029,103.0,108.0,102.0,13.4,1505.3,324.3,-0.7,1.8,2470.439,13.33,0.043,285.9
2020-09-30T07:55:03,42.805,6.029,-0.04,0.009,0.022,104.0,108.0,101.0,13.3,1505.3,326.2,-0.7,1.8,2470.444,13.33,0.041,282.7
2020-09-30T07:58:03,42.805,6.029,-0.04,0.005,-0.005,104.0,108.0,101.0,13.4,1505.3,322.9,-0.7,1.8,2470.416,13.33,0.04,277.1
2020-09-30T08:04:03,42.805,6.029,-0.04,0.004,-0.003,104.0,107.0,102.0,13.3,1505.3,324.8,-0.7,1.8,2470.458,13.31,0.04,275.7
2020-09-30T08:07:03,42.805,6.029,-0.049,0.002,-0.001,104.0,106.0,102.0,13.4,1505.3,326.3,-0.7,1.8,2470.447,13.32,0.049,272.3
2020-09-30T08:10:03,42.805,6.029,-0.034,0.022,0.014,102.0,108.0,102.0,13.4,1505.3,324.6,-0.7,1.9,2470.448,13.32,0.04,302.9
2020-09-30T08:13:03,42.805,6.029,-0.057,0.004,0.009,104.0,108.0,101.0,13.4,1505.3,324.8,-0.7,1.8,2470.39,13.32,0.057,274.0
2020-09-30T08:16:03,42.805,6.029,-0.048,-0.008,0.0,103.0,106.0,101.0,13.4,1505.3,324.5,-0.7,1.8,2470.426,13.32,0.048,260.5
2020-09-30T08:19:03,42.805,6.029,-0.042,0.006,-0.021,105.0,108.0,102.0,13.3,1505.3,325.7,-0.7,1.8,2470.404,13.33,0.042,278.1
2020-09-30T08:22:03,42.805,6.029,-0.036,0.019,0.001,102.0,109.0,101.0,13.3,1505.3,324.1,-0.7,1.8,2470.428,13.33,0.04,297.8
2020-09-30T08:25:03,42.805,6.029,-0.058,0.007,0.009,104.0,108.0,101.0,13.4,1505.3,326.1,-0.7,1.8,2470.406,13.33,0.058,276.9
2020-09-30T08:28:03,42.805,6.029,-0.059,0.001,0.007,103.0,109.0,101.0,13.3,1505.3,323.2,-0.7,1.8,2470.416,13.33,0.059,271.0
2020-09-30T08:31:03,42.805,6.029,-0.037,0.01,0.005,103.0,108.0,101.0,13.4,1505.3,326.7,-0.7,1.8,2470.391,13.33,0.038,285.1
2020-09-30T08:34:03,42.805,6.029,-0.048,-0.003,0.008,103.0,108.0,100.0,13.4,1505.3,323.3,-0.7,1.9,2470.388,13.33,0.048,266.4
2020-09-30T08:37:03,42.805,6.029,-0.022,0.014,0.006,103.0,106.0,105.0,13.3,1505.3,326.1,-0.7,1.8,2470.411,13.33,0.026,302.5
2020-09-30T08:40:03,42.805,6.029,-0.03,0.031,0.018,103.0,108.0,101.0,13.4,1505.3,324.5,-0.7,1.8,2470.372,13.33,0.043,315.9
2020-09-30T08:43:03,42.805,6.029,-0.065,0.004,-0.017,105.0,108.0,101.0,13.4,1505.3,325.9,-0.7,1.8,2470.396,13.33,0.065,273.5
2020-09-30T08:46:03,42.805,6.029,-0.036,0.009,0.01,103.0,108.0,101.0,13.3,1505.3,325.1,-0.7,1.8,2470.39,13.33,0.037,284.0
2020-09-30T08:49:03,42.805,6.029,-0.046,-0.009,-0.002,103.0,108.0,100.0,13.4,1505.3,325.3,-0.7,1.8,2470.383,13.33,0.046,258.9
2020-09-30T08:52:03,42.805,6.029,-0.035,0.01,-0.001,104.0,107.0,101.0,13.3,1505.3,326.9,-0.7,1.8,2470.375,13.33,0.036,285.9
2020-09-30T08:55:03,42.805,6.029,-0.034,0.017,0.016,104.0,108.0,102.0,13.4,1505.3,324.5,-0.7,1.8,2470.401,13.33,0.038,296.6
2020-09-30T08:58:03,42.805,6.029,-0.055,0.015,0.018,104.0,109.0,101.0,13.4,1505.3,327.6,-0.7,1.8,2470.391,13.33,0.057,285.3
2020-09-30T09:04:03,42.805,6.029,-0.037,-0.007,-0.031,103.0,108.0,101.0,13.4,1505.3,323.8,-0.7,1.8,2470.421,13.31,0.037,259.3
2020-09-30T09:07:03,42.805,6.029,-0.038,-0.033,-0.005,102.0,108.0,101.0,13.4,1505.3,324.5,-0.7,1.8,2470.399,13.31,0.05,229.0
2020-09-30T09:10:03,42.805,6.029,-0.045,0.002,-0.018,104.0,110.0,101.0,13.3,1505.3,327.6,-0.7,1.8,2470.415,13.32,0.045,272.5
2020-09-30T09:13:03,42.805,6.029,-0.053,0.009,-0.002,102.0,109.0,101.0,13.3,1505.3,324.5,-0.7,1.8,2470.435,13.32,0.053,279.6
2020-09-30T09:16:03,42.805,6.029,-0.042,0.0,-0.03,107.0,108.0,101.0,13.3,1505.3,324.0,-0.7,1.8,2470.423,13.33,0.042,270.0
2020-09-30T09:19:03,42.805,6.029,0.015,0.005,0.026,103.0,108.0,101.0,13.4,1505.3,324.2,-0.7,1.8,2470.392,13.33,0.015,71.6
2020-09-30T09:22:03,42.805,6.029,-0.035,0.018,0.036,103.0,107.0,100.0,13.3,1505.3,327.9,-0.7,1.8,2470.371,13.33,0.039,297.2
2020-09-30T09:25:03,42.805,6.029,-0.02,0.01,0.029,104.0,109.0,101.0,13.4,1505.3,327.2,-0.7,1.8,2470.386,13.33,0.022,296.6
2020-09-30T09:28:03,42.805,6.029,-0.04,0.007,0.007,103.0,108.0,102.0,13.4,1505.3,324.4,-0.6,1.8,2470.368,13.33,0.04,279.9
2020-09-30T09:31:03,42.805,6.029,-0.014,0.009,0.034,104.0,108.0,101.0,13.3,1505.3,326.3,-0.7,1.8,2470.372,13.33,0.016,302.7
2020-09-30T09:34:03,42.805,6.029,-0.056,-0.003,0.021,104.0,107.0,101.0,13.4,1505.3,323.9,-0.7,1.8,2470.375,13.33,0.056,266.9
2020-09-30T09:37:03,42.805,6.029,-0.07,0.023,-0.023,102.0,107.0,102.0,13.4,1505.3,324.5,-0.7,1.8,2470.366,13.33,0.073,288.2
2020-09-30T09:40:03,42.805,6.029,-0.025,0.014,0.009,101.0,107.0,101.0,13.3,1505.3,324.2,-0.7,1.9,2470.413,13.33,0.028,299.3
2020-09-30T09:43:03,42.805,6.029,-0.009,-0.007,-0.001,103.0,107.0,101.0,13.4,1505.3,324.9,-0.7,1.8,2470.406,13.33,0.011,232.1
2020-09-30T09:46:03,42.805,6.029,-0.018,-0.015,0.0,103.0,107.0,101.0,13.4,1505.3,324.3,-0.7,1.8,2470.334,13.33,0.023,230.2
2020-09-30T09:49:03,42.805,6.029,-0.029,-0.001,0.0,103.0,107.0,101.0,13.4,1505.3,327.2,-0.7,1.8,2470.35,13.33,0.029,268.0
2020-09-30T09:52:03,42.805,6.029,-0.035,0.01,-0.002,102.0,107.0,101.0,13.3,1505.3,326.3,-0.7,1.8,2470.374,13.33,0.036,285.9
2020-09-30T09:55:03,42.805,6.029,-0.034,0.001,0.018,103.0,107.0,102.0,13.3,1505.3,324.2,-0.7,1.8,2470.38,13.33,0.034,271.7